DL5MAC-13 Weather Reports


time (UTC)temp
F
wind
direction
speed
knots
gust
knots
rain 1hr
in
rain 24hr
in
rain mn
in
humidity
%
barometer
mb
20260507104025 53 0.0 0.0 0.00 0.14 0.00 76 1016.9
20260507103049 53 0.0 0.0 0.00 0.14 0.00 75 1017.0
20260507102116 54 0.0 0.0 0.00 0.14 0.00 71 1016.9
20260507101034 55 0.0 0.0 0.00 0.14 0.00 68 1016.7
20260507100100 55 0.0 0.0 0.00 0.14 0.00 68 1016.7
20260507095020 55 0.0 0.0 0.00 0.14 0.00 71 1016.6
20260507094036 55 0.0 0.0 0.00 0.14 0.00 70 1016.5
20260507093108 56 25 0.0 0.9 0.00 0.14 0.00 69 1016.3
20260507092025 55 0.0 0.0 0.00 0.14 0.00 69 1016.3
20260507091048 56 0.0 0.0 0.00 0.14 0.00 70 1016.2
20260507090116 56 0.0 0.0 0.00 0.14 0.00 70 1016.2
20260507085034 57 0.0 0.0 0.00 0.14 0.00 67 1016.0
20260507084100 57 0.0 0.0 0.00 0.14 0.00 68 1016.0
20260507083019 57 0.0 0.0 0.00 0.14 0.00 67 1015.9
20260507082036 57 0.0 0.0 0.00 0.14 0.00 68 1015.8
20260507081108 59 0.0 0.0 0.00 0.14 0.00 65 1015.8
20260507080025 57 0.0 0.0 0.00 0.14 0.00 67 1015.9
20260507075048 56 0.0 0.0 0.00 0.14 0.00 68 1015.8
20260507074115 57 0.0 0.0 0.00 0.14 0.00 69 1015.9
20260507073034 57 40 0.0 0.9 0.00 0.14 0.00 67 1015.6
20260507072100 58 22 0.0 0.9 0.00 0.14 0.00 65 1015.6
20260507071020 57 22 0.0 0.9 0.00 0.14 0.00 67 1015.5
20260507070041 57 0.0 0.0 0.00 0.14 0.00 67 1015.5
20260507065108 55 0.0 0.0 0.00 0.14 0.00 70 1015.4
20260507064026 52 0.0 0.0 0.00 0.14 0.00 75 1015.4
20260507063049 51 0.0 0.0 0.00 0.14 0.00 77 1015.3
20260507062028 51 0.0 0.0 0.00 0.14 0.00 79 1015.2
20260507061049 51 0.0 0.0 0.00 0.14 0.00 78 1015.1
20260507060116 51 0.0 0.0 0.00 0.14 0.00 78 1015.0
20260507055033 51 0.0 0.0 0.00 0.14 0.00 79 1015.0
20260507054100 50 0.0 0.0 0.00 0.14 0.00 80 1014.9
20260507053020 49 0.0 0.0 0.00 0.14 0.00 81 1014.7
20260507052044 48 0.0 0.0 0.00 0.14 0.00 83 1014.6
20260507051020 48 0.0 0.0 0.00 0.14 0.00 83 1014.4
20260507050042 47 0.0 0.0 0.00 0.14 0.00 85 1014.3
20260507045108 46 0.0 0.0 0.00 0.14 0.00 88 1014.3
20260507044026 46 0.0 0.0 0.00 0.14 0.00 89 1014.3
20260507043049 45 0.0 0.0 0.00 0.14 0.00 88 1014.2
20260507042115 45 0.0 0.0 0.00 0.14 0.00 88 1014.0
20260507041034 45 0.0 0.0 0.00 0.14 0.00 88 1014.0
20260507040100 45 0.0 0.0 0.00 0.14 0.00 88 1014.0
20260507035034 45 0.0 0.0 0.00 0.14 0.00 89 1014.0
20260507034101 44 0.0 0.0 0.00 0.14 0.00 90 1013.9
20260507033021 44 0.0 0.0 0.00 0.14 0.00 89 1013.9
20260507032035 45 0.0 0.0 0.00 0.14 0.00 89 1013.8
20260507031108 45 0.0 0.0 0.00 0.14 0.00 88 1013.6
20260507030035 45 0.0 0.0 0.00 0.14 0.00 88 1013.6
20260507025109 45 0.0 0.0 0.00 0.14 0.00 88 1013.6
20260507024029 46 0.0 0.0 0.00 0.14 0.00 88 1013.5
20260507023049 46 0.0 0.0 0.00 0.14 0.00 87 1013.4
20260507022117 46 0.0 0.0 0.00 0.14 0.00 87 1013.4
20260507021037 46 0.0 0.0 0.00 0.14 0.00 86 1013.4
20260507020100 46 0.0 0.0 0.00 0.14 0.00 86 1013.4
20260507015034 46 0.0 0.0 0.00 0.14 0.00 86 1013.4
20260507014101 46 0.0 0.0 0.00 0.14 0.00 86 1013.5
20260507013021 47 0.0 0.0 0.00 0.14 0.00 86 1013.3
20260507012037 47 0.0 0.0 0.00 0.14 0.00 85 1013.3
20260507011108 47 0.0 0.0 0.00 0.14 0.00 85 1013.1
20260507010025 47 0.0 0.0 0.00 0.14 0.00 85 1013.2
20260507005049 48 0.0 0.0 0.00 0.14 0.00 84 1013.2
20260507004117 48 0.0 0.0 0.00 0.14 0.00 84 1013.0
20260507003034 48 0.0 0.0 0.00 0.14 0.00 84 1013.0
20260507002036 48 0.0 0.0 0.00 0.14 0.00 83 1013.0
20260507001108 49 0.0 0.0 0.00 0.14 0.00 82 1013.2
20260507000026 49 0.0 0.0 0.00 0.14 0.00 81 1013.2
20260506235049 50 0.0 0.0 0.00 0.14 0.00 80 1013.1
20260506234117 50 0.0 0.0 0.00 0.14 0.00 80 1013.1
20260506233034 50 0.0 0.0 0.00 0.14 0.00 81 1013.1
20260506232036 50 0.0 0.0 0.00 0.14 0.00 81 1013.1
20260506231108 50 0.0 0.0 0.00 0.14 0.00 81 1013.1
20260506230028 50 0.0 0.0 0.00 0.14 0.00 81 1013.0
20260506225050 50 0.0 0.0 0.00 0.14 0.00 82 1013.0
20260506224118 50 0.0 0.0 0.00 0.14 0.00 82 1012.9
20260506223034 50 0.0 0.0 0.00 0.14 0.00 82 1012.9
20260506222101 50 0.0 0.0 0.00 0.14 0.00 82 1012.9
20260506221021 50 0.0 0.0 0.00 0.14 0.00 81 1012.8
20260506220045 51 0.0 0.0 0.00 0.14 0.00 81 1012.8
20260506215108 51 0.0 0.0 0.00 0.14 0.14 81 1012.7
20260506214029 51 0.0 0.0 0.00 0.14 0.14 81 1012.5
20260506213052 51 0.0 0.0 0.00 0.14 0.14 81 1012.6
20260506212116 51 0.0 0.0 0.00 0.14 0.14 81 1012.5
20260506211036 51 0.0 0.0 0.00 0.14 0.14 80 1012.4
20260506205022 51 0.0 0.0 0.00 0.14 0.14 81 1012.2
20260506204044 51 0.0 0.0 0.00 0.14 0.14 81 1012.1
20260506203034 51 0.0 0.0 0.00 0.14 0.14 81 1012.1
20260506202100 51 0.0 0.0 0.00 0.14 0.14 81 1012.1
20260506201033 52 0.0 0.0 0.00 0.14 0.14 80 1011.9
20260506195021 52 0.0 0.0 0.00 0.14 0.14 82 1011.6
20260506194045 52 0.0 0.0 0.00 0.14 0.14 81 1011.3
20260506193109 52 0.0 0.0 0.00 0.14 0.14 81 1011.2
20260506192041 52 0.0 0.0 0.00 0.14 0.14 82 1010.9
20260506191021 52 0.0 0.0 0.00 0.14 0.14 83 1010.7
20260506190044 52 0.0 0.0 0.00 0.14 0.14 83 1010.5
20260506185033 52 0.0 0.0 0.00 0.14 0.14 84 1010.1
20260506184101 52 36 0.0 0.9 0.00 0.14 0.14 84 1010.1
20260506183021 52 30 0.0 0.9 0.00 0.14 0.14 85 1010.1
20260506182044 52 0.0 0.0 0.00 0.14 0.14 85 1010.0
20260506181034 53 0.0 0.0 0.00 0.14 0.14 85 1009.9
20260506175020 55 26 0.0 0.9 0.00 0.14 0.14 86 1009.5
20260506174045 56 0.0 0.0 0.00 0.14 0.14 90 1009.1
20260506173110 56 0.0 0.0 0.00 0.14 0.14 90 1008.7
20260506172029 55 0.0 0.0 0.00 0.14 0.14 90 1008.5
20260506171053 55 0.0 0.0 0.01 0.14 0.14 89 1008.2
20260506170117 55 0.0 0.0 0.04 0.14 0.14 89 1007.8
20260506165034 55 0.0 0.0 0.08 0.14 0.14 89 1007.6
20260506164101 55 0.0 0.0 0.11 0.17 0.14 89 1007.9
20260506163038 55 0.0 0.0 0.12 0.22 0.14 89 1007.3
20260506162118 55 0.0 0.0 0.13 0.24 0.14 90 1007.5
20260506161037 54 0.0 0.0 0.13 0.25 0.13 88 1008.5
20260506155038 53 0.0 0.0 0.06 0.18 0.06 87 1009.0
20260506154117 53 0.0 0.0 0.03 0.15 0.03 85 1009.1
20260506153037 54 38 0.0 0.9 0.02 0.14 0.02 81 1009.0
20260506152101 57 31 0.0 0.9 0.01 0.13 0.01 74 1008.6
20260506151042 64 333 0.0 1.7 0.00 0.12 0.00 65 1007.8
20260506150030 66 0.0 0.0 0.00 0.12 0.00 58 1007.1
20260506145053 67 0.0 0.0 0.00 0.12 0.00 56 1006.8
20260506144036 68 0.0 0.0 0.00 0.12 0.00 54 1006.4
20260506143109 68 0.0 0.0 0.00 0.12 0.00 52 1006.4
20260506142029 68 0.0 0.0 0.00 0.12 0.00 52 1006.6
20260506141053 68 44 0.0 0.9 0.00 0.12 0.00 52 1006.7
20260506140036 69 0.0 0.0 0.00 0.12 0.00 52 1006.9
20260506135109 69 50 0.0 0.9 0.00 0.12 0.00 51 1006.9
20260506134029 69 0.0 0.0 0.00 0.12 0.00 52 1006.9
20260506133053 69 0.0 0.0 0.00 0.12 0.00 52 1007.0
20260506132029 69 37 0.0 0.9 0.00 0.12 0.00 50 1007.2
20260506131054 69 26 0.0 0.9 0.00 0.12 0.00 52 1007.3
20260506130117 69 30 0.0 0.9 0.00 0.12 0.00 50 1007.5
20260506125043 70 60 0.0 0.9 0.00 0.12 0.00 52 1007.4
20260506124029 68 47 0.0 0.9 0.00 0.12 0.00 53 1007.6
20260506123053 69 13 0.0 0.9 0.00 0.12 0.00 53 1007.7
20260506122036 69 0.0 0.0 0.00 0.12 0.00 53 1007.9
20260506121110 69 28 0.0 0.9 0.00 0.12 0.00 54 1007.9
20260506120030 70 0.0 0.0 0.00 0.12 0.00 53 1008.0
20260506115044 68 0.0 0.0 0.00 0.12 0.00 55 1007.9
20260506114117 67 0.0 0.0 0.00 0.12 0.00 55 1007.6
20260506113039 67 56 0.0 0.9 0.00 0.12 0.00 55 1008.2
20260506112117 67 0.0 0.0 0.00 0.12 0.00 56 1008.6
20260506111039 67 50 0.0 0.9 0.00 0.12 0.00 55 1008.9
20260506110117 68 48 0.0 0.9 0.00 0.12 0.00 55 1008.9
20260506105035 69 50 0.0 1.7 0.00 0.12 0.00 54 1009.0